Flint, MI

10:07 AM EDT on April 26, 2017 (GMT -0400)
Bishop International

Weather History for KFNT - December, 2013

Change the Weather History Date:

Saturday, December 7, 2013

  Actual Average Record
Temperature  
Mean Temperature 18 °F 30 °F  
Max Temperature 24 °F 37 °F 59 °F (1951)
Min Temperature 12 °F 24 °F 0 °F (1983)
Degree Days  
Heating Degree Days 47 35  
Month to date heating degree days 219 235  
Since 1 July heating degree days 1618 1716  
Cooling Degree Days 0 0  
Month to date cooling degree days 0 0  
Year to date cooling degree days 758 531  
Moisture  
Dew Point 7 °F    
Average Humidity 63    
Maximum Humidity 76    
Minimum Humidity 50    
Precipitation  
Precipitation T in 0.07 in 0.86 in (1927)
Month to date precipitation 0.17 0.49  
Year to date precipitation 30.95 29.94  
Snow  
Snow T in 0.40 in 7.70 in (1994)
Month to date snowfall T 2.2  
Since 1 July snowfall 1.6 5.1  
Snow Depth 0.00 in    
Sea Level Pressure  
Sea Level Pressure 30.55 in    
Wind  
Wind Speed 9 mph (WNW)    
Max Wind Speed 17 mph    
Max Gust Speed 22 mph    
Visibility 10 miles    
Events Snow    
T = Trace of Precipitation, MM = Missing Value Source: NWS Daily Summary

Daily Weather History Graph

Daily Weather History Graph

Search for Another Location

Airport or City:

Trip Planner

Search our weather history database for the weather conditions in past years. The results will help you decide how hot, cold, wet, or windy it might be!

Date:

Astronomy

Dec. 07, 2013 Rise Set
Actual Time 7:52 AM EST 5:00 PM EST
Civil Twilight 7:20 AM EST 5:32 PM EST
Nautical Twilight 6:45 AM EST 6:07 PM EST
Astronomical Twilight 6:10 AM EST 6:42 PM EST
Moon 11:31 AM EST (12/7) 10:46 PM EST (12/7)
Length of Visible Light 10h 11m
Length of Day
9h 07m
Waxing Crescent, 29% of the Moon is Illuminated
Dec 7
Waxing Crescent
Dec 9
First Quarter
Dec 17
Full
Dec 25
Last Quarter
Jan 1
New

Hourly Weather History & Observations

Time (EST) Temp. Windchill Dew Point Humidity Pressure Visibility Wind Dir Wind Speed Gust Speed Precip Events Conditions
12:53 AM 18.0 °F 7.7 °F 8.1 °F 65% 30.44 in 10.0 mi WNW 8.1 mph - N/A   Overcast
1:53 AM 18.0 °F 8.7 °F 9.0 °F 68% 30.44 in 10.0 mi West 6.9 mph - N/A   Overcast
2:53 AM 18.0 °F 8.7 °F 8.1 °F 65% 30.46 in 10.0 mi West 6.9 mph - N/A   Overcast
3:53 AM 19.9 °F 8.6 °F 7.0 °F 57% 30.46 in 10.0 mi WNW 10.4 mph - N/A   Overcast
4:53 AM 19.9 °F 10.1 °F 10.0 °F 65% 30.48 in 10.0 mi WNW 8.1 mph - 0.00 in   Overcast
5:23 AM 19.4 °F 7.9 °F 10.4 °F 68% 30.45 in 5.0 mi WNW 10.4 mph - 0.00 in Snow Light Snow
5:43 AM 19.4 °F 6.6 °F 8.6 °F 63% 30.45 in 10.0 mi WNW 12.7 mph - 0.00 in   Overcast
5:53 AM 19.9 °F 7.3 °F 9.0 °F 62% 30.49 in 10.0 mi NW 12.7 mph - 0.00 in   Overcast
6:53 AM 17.1 °F 6.6 °F 5.0 °F 59% 30.52 in 10.0 mi WNW 8.1 mph - N/A   Clear
7:53 AM 17.1 °F 5.8 °F 6.1 °F 62% 30.53 in 10.0 mi WNW 9.2 mph - N/A   Scattered Clouds
8:36 AM 19.4 °F 8.6 °F 6.8 °F 58% 30.50 in 10.0 mi WNW 9.2 mph - N/A   Overcast
8:53 AM 19.9 °F 8.6 °F 8.1 °F 60% 30.56 in 10.0 mi WNW 10.4 mph - N/A   Overcast
9:53 AM 19.9 °F 7.3 °F 8.1 °F 60% 30.58 in 10.0 mi WNW 12.7 mph - 0.00 in   Overcast
10:38 AM 21.2 °F 7.3 °F 6.8 °F 54% 30.55 in 10.0 mi WNW 16.1 mph - N/A   Scattered Clouds
10:53 AM 21.0 °F 8.1 °F 6.1 °F 53% 30.60 in 10.0 mi West 13.8 mph - N/A   Partly Cloudy
11:37 AM 21.2 °F 8.9 °F 8.6 °F 58% 30.56 in 10.0 mi WNW 12.7 mph - N/A   Mostly Cloudy
11:53 AM 21.9 °F 8.2 °F 8.1 °F 55% 30.60 in 10.0 mi West 16.1 mph 20.7 mph N/A   Overcast
12:43 PM 23.0 °F 9.6 °F 6.8 °F 50% 30.55 in 10.0 mi WNW 16.1 mph - N/A   Mostly Cloudy
12:53 PM 23.0 °F 10.1 °F 7.0 °F 50% 30.59 in 10.0 mi West 15.0 mph - N/A   Scattered Clouds
1:53 PM 23.0 °F 12.4 °F 6.1 °F 48% 30.58 in 10.0 mi WNW 10.4 mph - N/A   Partly Cloudy
2:53 PM 23.0 °F 10.6 °F 6.1 °F 48% 30.57 in 10.0 mi West 13.8 mph - N/A   Clear
3:53 PM 21.9 °F 9.8 °F 6.1 °F 51% 30.58 in 10.0 mi NW 12.7 mph - N/A   Clear
4:53 PM 19.9 °F 10.1 °F 7.0 °F 57% 30.59 in 10.0 mi WNW 8.1 mph - N/A   Clear
5:53 PM 17.1 °F 10.0 °F 8.1 °F 68% 30.60 in 10.0 mi WNW 4.6 mph - N/A   Clear
6:53 PM 17.1 °F 8.7 °F 7.0 °F 65% 30.62 in 10.0 mi West 5.8 mph - N/A   Clear
7:53 PM 15.1 °F 7.7 °F 7.0 °F 70% 30.63 in 10.0 mi West 4.6 mph - N/A   Clear
8:53 PM 14.0 °F 3.9 °F 7.0 °F 74% 30.64 in 10.0 mi West 6.9 mph - N/A   Clear
9:53 PM 14.0 °F 8.2 °F 6.1 °F 71% 30.63 in 10.0 mi West 3.5 mph - N/A   Clear
10:53 PM 12.9 °F 6.9 °F 6.1 °F 74% 30.62 in 10.0 mi WNW 3.5 mph - N/A   Clear
11:53 PM 12.9 °F 6.9 °F 6.1 °F 74% 30.63 in 10.0 mi WSW 3.5 mph - N/A   Clear